TimeEDT,TemperatureF,Dew PointF,Humidity,Sea Level PressureIn,VisibilityMPH,Wind Direction,Wind SpeedMPH,Gust SpeedMPH,PrecipitationIn,Events,Conditions,WindDirDegrees,DateUTC
12:15 AM,59.0,59.0,100,30.00,7.0,Calm,Calm,-,N/A,,Clear,0,2014-06-09 04:15:00
12:35 AM,60.8,59.0,94,30.01,10.0,Calm,Calm,-,N/A,,Clear,0,2014-06-09 04:35:00
12:55 AM,59.0,57.2,94,30.00,4.0,Calm,Calm,-,N/A,,Clear,0,2014-06-09 04:55:00
1:15 AM,59.0,59.0,100,30.00,7.0,Calm,Calm,-,N/A,,Clear,0,2014-06-09 05:15:00
1:35 AM,55.4,55.4,100,30.00,1.5,Calm,Calm,-,N/A,,Mist,0,2014-06-09 05:35:00
1:55 AM,57.2,57.2,100,29.99,3.0,Calm,Calm,-,N/A,,Clear,0,2014-06-09 05:55:00
2:15 AM,55.4,55.4,100,29.98,5.0,Calm,Calm,-,N/A,,Clear,0,2014-06-09 06:15:00
2:35 AM,53.6,53.6,100,29.99,1.5,Calm,Calm,-,N/A,,Mist,0,2014-06-09 06:35:00
2:55 AM,55.4,55.4,100,29.99,1.0,Calm,Calm,-,N/A,,Mist,0,2014-06-09 06:55:00
3:15 AM,53.6,53.6,100,29.99,1.5,Calm,Calm,-,N/A,,Mist,0,2014-06-09 07:15:00
3:35 AM,55.4,55.4,100,29.97,7.0,Calm,Calm,-,N/A,,Clear,0,2014-06-09 07:35:00
3:55 AM,53.6,53.6,100,29.97,2.5,Calm,Calm,-,N/A,,Clear,0,2014-06-09 07:55:00
4:15 AM,55.4,53.6,94,29.96,5.0,Calm,Calm,-,N/A,,Clear,0,2014-06-09 08:15:00
4:35 AM,55.4,55.4,100,29.95,7.0,Calm,Calm,-,N/A,,Scattered Clouds,0,2014-06-09 08:35:00
4:55 AM,53.6,53.6,100,29.97,2.5,Calm,Calm,-,N/A,,Mostly Cloudy,0,2014-06-09 08:55:00
5:15 AM,53.6,53.6,100,29.97,4.0,Calm,Calm,-,N/A,,Scattered Clouds,0,2014-06-09 09:15:00
5:35 AM,53.6,53.6,100,29.98,0.8,Calm,Calm,-,N/A,,Mostly Cloudy,0,2014-06-09 09:35:00
5:55 AM,53.6,53.6,100,29.98,0.2,Calm,Calm,-,N/A,Fog,Fog,0,2014-06-09 09:55:00
6:15 AM,53.6,53.6,100,29.99,0.2,WSW,3.5,-,N/A,Fog,Fog,240,2014-06-09 10:15:00
6:35 AM,53.6,53.6,100,30.00,0.2,SW,3.5,-,N/A,Fog,Fog,230,2014-06-09 10:35:00
6:55 AM,53.6,53.6,100,30.00,0.2,Calm,Calm,-,N/A,Fog,Fog,0,2014-06-09 10:55:00
7:15 AM,53.6,53.6,100,30.01,0.8,Calm,Calm,-,N/A,,Overcast,0,2014-06-09 11:15:00
7:35 AM,55.4,55.4,100,30.02,1.2,Calm,Calm,-,N/A,,Mostly Cloudy,0,2014-06-09 11:35:00
7:55 AM,59.0,57.2,94,30.00,5.0,Calm,Calm,-,N/A,,Clear,0,2014-06-09 11:55:00
8:15 AM,60.8,59.0,94,30.00,5.0,Calm,Calm,-,N/A,,Clear,0,2014-06-09 12:15:00
8:35 AM,60.8,59.0,94,30.00,7.0,Calm,Calm,-,N/A,,Scattered Clouds,0,2014-06-09 12:35:00
8:55 AM,62.6,59.0,88,30.00,10.0,Calm,Calm,-,N/A,,Scattered Clouds,0,2014-06-09 12:55:00
9:15 AM,64.4,60.8,88,29.99,10.0,East,3.5,-,N/A,,Clear,90,2014-06-09 13:15:00
9:35 AM,66.2,59.0,78,29.98,10.0,ENE,5.8,-,N/A,,Scattered Clouds,70,2014-06-09 13:35:00
9:55 AM,68.0,59.0,73,29.98,10.0,ESE,4.6,-,N/A,,Scattered Clouds,110,2014-06-09 13:55:00
10:15 AM,68.0,59.0,73,29.98,10.0,ENE,8.1,-,N/A,,Mostly Cloudy,70,2014-06-09 14:15:00
10:35 AM,68.0,57.2,68,29.99,10.0,East,6.9,-,N/A,,Mostly Cloudy,90,2014-06-09 14:35:00
10:55 AM,68.0,59.0,73,29.99,10.0,ENE,8.1,-,N/A,,Scattered Clouds,70,2014-06-09 14:55:00
11:15 AM,68.0,57.2,68,30.00,10.0,East,8.1,-,N/A,,Scattered Clouds,90,2014-06-09 15:15:00
11:35 AM,69.8,57.2,64,30.00,10.0,ESE,6.9,-,N/A,,Mostly Cloudy,110,2014-06-09 15:35:00
11:55 AM,69.8,57.2,64,29.99,10.0,ENE,8.1,-,N/A,,Scattered Clouds,60,2014-06-09 15:55:00
12:35 PM,71.6,59.0,64,29.98,10.0,ESE,8.1,-,N/A,,Scattered Clouds,110,2014-06-09 16:35:00
12:55 PM,69.8,59.0,68,29.99,10.0,ESE,5.8,-,N/A,,Scattered Clouds,120,2014-06-09 16:55:00
1:15 PM,71.6,57.2,60,30.00,10.0,East,6.9,-,N/A,,Scattered Clouds,100,2014-06-09 17:15:00
1:35 PM,71.6,55.4,57,30.00,10.0,SE,3.5,-,N/A,,Scattered Clouds,140,2014-06-09 17:35:00
1:55 PM,69.8,57.2,64,30.00,10.0,Calm,Calm,-,N/A,,Mostly Cloudy,0,2014-06-09 17:55:00
2:15 PM,71.6,59.0,64,29.99,10.0,NE,5.8,-,N/A,,Overcast,50,2014-06-09 18:15:00
2:35 PM,71.6,59.0,64,29.97,10.0,ESE,4.6,-,N/A,,Mostly Cloudy,110,2014-06-09 18:35:00
3:35 PM,71.6,59.0,64,29.95,10.0,ESE,3.5,-,N/A,,Scattered Clouds,120,2014-06-09 19:35:00
3:55 PM,71.6,59.0,64,29.95,10.0,ESE,3.5,-,N/A,,Mostly Cloudy,110,2014-06-09 19:55:00
4:15 PM,71.6,57.2,60,29.94,10.0,ESE,4.6,-,N/A,,Mostly Cloudy,110,2014-06-09 20:15:00
4:35 PM,71.6,59.0,64,29.93,10.0,SE,5.8,-,N/A,,Overcast,140,2014-06-09 20:35:00
5:15 PM,71.6,59.0,64,29.94,10.0,ESE,3.5,-,N/A,,Overcast,110,2014-06-09 21:15:00
5:35 PM,71.6,59.0,64,29.94,10.0,ESE,3.5,-,N/A,,Overcast,110,2014-06-09 21:35:00
5:55 PM,71.6,59.0,64,29.93,10.0,Calm,Calm,-,N/A,,Overcast,0,2014-06-09 21:55:00
6:15 PM,71.6,59.0,64,29.93,10.0,ESE,3.5,-,N/A,Rain,Light Rain,110,2014-06-09 22:15:00
6:35 PM,71.6,59.0,64,29.93,10.0,Calm,Calm,-,N/A,,Mostly Cloudy,0,2014-06-09 22:35:00
6:55 PM,71.6,59.0,64,29.93,10.0,Calm,Calm,-,N/A,,Mostly Cloudy,0,2014-06-09 22:55:00
7:15 PM,71.6,59.0,64,29.93,10.0,Calm,Calm,-,N/A,,Mostly Cloudy,0,2014-06-09 23:15:00
7:35 PM,71.6,59.0,64,29.93,10.0,Calm,Calm,-,N/A,,Clear,0,2014-06-09 23:35:00
7:55 PM,71.6,59.0,64,29.93,10.0,Calm,Calm,-,N/A,,Clear,0,2014-06-09 23:55:00
8:15 PM,71.6,60.8,69,29.93,10.0,East,3.5,-,N/A,,Mostly Cloudy,100,2014-06-10 00:15:00
8:35 PM,69.8,60.8,73,29.93,10.0,East,3.5,-,N/A,,Scattered Clouds,100,2014-06-10 00:35:00
8:55 PM,69.8,60.8,73,29.94,10.0,ESE,3.5,-,N/A,,Clear,120,2014-06-10 00:55:00
9:15 PM,68.0,60.8,78,29.94,10.0,ESE,4.6,-,N/A,,Clear,110,2014-06-10 01:15:00
9:35 PM,68.0,60.8,78,29.95,10.0,SE,4.6,-,N/A,,Clear,130,2014-06-10 01:35:00
9:55 PM,62.6,59.0,88,29.96,10.0,Calm,Calm,-,N/A,,Clear,0,2014-06-10 01:55:00
10:15 PM,64.4,60.8,88,29.95,10.0,SE,3.5,-,N/A,,Clear,130,2014-06-10 02:15:00
10:35 PM,60.8,59.0,94,29.96,7.0,Calm,Calm,-,N/A,,Clear,0,2014-06-10 02:35:00
10:55 PM,60.8,59.0,94,29.97,7.0,South,3.5,-,N/A,,Clear,190,2014-06-10 02:55:00
11:15 PM,60.8,59.0,94,29.97,5.0,Calm,Calm,-,N/A,,Clear,0,2014-06-10 03:15:00
11:35 PM,60.8,59.0,94,29.96,10.0,SE,4.6,-,N/A,,Clear,140,2014-06-10 03:35:00
11:55 PM,60.8,59.0,94,29.96,10.0,SSE,3.5,-,N/A,,Clear,150,2014-06-10 03:55:00